Time,TemperatureF,DewpointF,PressureIn,WindDirection,WindDirectionDegrees,WindSpeedMPH,WindSpeedGustMPH,Humidity,HourlyPrecipIn,Conditions,Clouds,dailyrainin,SoftwareType,DateUTC
2013-05-31 00:00:00,66.6,66.3,30.16,NE,37,0.0,0.0,99,0.00,,,0.00,Wunderground v.1.15,2013-05-31 04:00:00,
2013-05-31 00:05:00,66.5,66.2,30.16,NE,38,0.0,0.0,99,0.00,,,0.00,Wunderground v.1.15,2013-05-31 04:05:00,
2013-05-31 00:14:00,66.3,66.3,30.16,NE,37,0.0,0.0,100,0.00,,,0.00,Wunderground v.1.15,2013-05-31 04:14:00,
2013-05-31 00:19:00,66.3,66.3,30.16,NE,37,0.0,0.0,100,0.00,,,0.00,Wunderground v.1.15,2013-05-31 04:19:00,
2013-05-31 00:25:00,66.1,66.1,30.16,NE,37,0.0,0.0,100,0.00,,,0.00,Wunderground v.1.15,2013-05-31 04:25:00,
2013-05-31 00:34:00,66.1,66.1,30.17,NE,38,0.0,0.0,100,0.00,,,0.00,Wunderground v.1.15,2013-05-31 04:34:00,
2013-05-31 00:39:00,66.0,66.0,30.17,NE,38,0.0,0.0,100,0.00,,,0.00,Wunderground v.1.15,2013-05-31 04:39:00,
2013-05-31 00:45:00,65.9,65.9,30.17,NE,38,0.0,0.0,100,0.00,,,0.00,Wunderground v.1.15,2013-05-31 04:45:00,
2013-05-31 00:49:00,65.9,65.9,30.17,NE,37,0.0,0.0,100,0.00,,,0.00,Wunderground v.1.15,2013-05-31 04:49:00,
2013-05-31 00:55:00,65.8,65.8,30.17,NE,38,0.0,0.0,100,0.00,,,0.00,Wunderground v.1.15,2013-05-31 04:55:00,
2013-05-31 01:00:00,65.7,65.7,30.17,NE,37,0.0,0.0,100,0.00,,,0.00,Wunderground v.1.15,2013-05-31 05:00:00,
2013-05-31 01:09:00,65.5,65.5,30.17,NE,38,0.0,0.0,100,0.00,,,0.00,Wunderground v.1.15,2013-05-31 05:09:00,
2013-05-31 01:19:00,65.4,65.4,30.17,NE,38,0.0,0.0,100,0.00,,,0.00,Wunderground v.1.15,2013-05-31 05:19:00,
2013-05-31 01:25:00,65.2,65.2,30.17,NE,37,0.0,0.0,100,0.00,,,0.00,Wunderground v.1.15,2013-05-31 05:25:00,
2013-05-31 01:30:00,65.1,65.1,30.17,NE,38,0.0,0.0,100,0.00,,,0.00,Wunderground v.1.15,2013-05-31 05:30:00,
2013-05-31 01:40:00,64.9,64.9,30.17,NE,38,0.0,0.0,100,0.00,,,0.00,Wunderground v.1.15,2013-05-31 05:40:00,
2013-05-31 01:49:00,64.8,64.8,30.16,NE,38,0.0,0.0,100,0.00,,,0.00,Wunderground v.1.15,2013-05-31 05:49:00,
2013-05-31 01:55:00,64.7,64.7,30.16,NE,38,0.0,0.0,100,0.00,,,0.00,Wunderground v.1.15,2013-05-31 05:55:00,
2013-05-31 02:00:00,64.6,64.6,30.16,NE,38,0.0,0.0,100,0.00,,,0.00,Wunderground v.1.15,2013-05-31 06:00:00,
2013-05-31 02:10:00,64.5,64.5,30.16,NE,37,0.0,0.0,100,0.00,,,0.00,Wunderground v.1.15,2013-05-31 06:10:00,
2013-05-31 02:19:00,64.3,64.3,30.16,NE,38,0.0,0.0,100,0.00,,,0.00,Wunderground v.1.15,2013-05-31 06:19:00,
2013-05-31 02:25:00,64.2,64.2,30.16,NE,37,0.0,0.0,100,0.00,,,0.00,Wunderground v.1.15,2013-05-31 06:25:00,
2013-05-31 02:30:00,64.1,64.1,30.16,NE,38,0.0,0.0,100,0.00,,,0.00,Wunderground v.1.15,2013-05-31 06:30:00,
2013-05-31 02:40:00,63.9,63.9,30.16,NE,38,0.0,0.0,100,0.00,,,0.00,Wunderground v.1.15,2013-05-31 06:40:00,
2013-05-31 02:49:00,63.8,63.8,30.14,NE,38,0.0,0.0,100,0.00,,,0.00,Wunderground v.1.15,2013-05-31 06:49:00,
2013-05-31 02:55:00,63.9,63.9,30.14,NE,37,0.0,0.0,100,0.00,,,0.00,Wunderground v.1.15,2013-05-31 06:55:00,
2013-05-31 03:00:00,64.0,64.0,30.14,NE,38,0.0,0.0,100,0.00,,,0.00,Wunderground v.1.15,2013-05-31 07:00:00,
2013-05-31 03:10:00,64.3,64.3,30.15,NE,37,0.0,0.0,100,0.00,,,0.00,Wunderground v.1.15,2013-05-31 07:10:00,
2013-05-31 03:19:00,64.4,64.4,30.14,NE,38,0.0,0.0,100,0.00,,,0.00,Wunderground v.1.15,2013-05-31 07:19:00,
2013-05-31 03:25:00,64.4,64.4,30.14,NE,38,0.0,0.0,100,0.00,,,0.00,Wunderground v.1.15,2013-05-31 07:25:00,
2013-05-31 03:30:00,64.5,64.5,30.14,NE,37,0.0,0.0,100,0.00,,,0.00,Wunderground v.1.15,2013-05-31 07:30:00,
2013-05-31 03:40:00,64.6,64.6,30.13,NE,37,0.0,0.0,100,0.00,,,0.00,Wunderground v.1.15,2013-05-31 07:40:00,
2013-05-31 03:49:00,64.7,64.7,30.13,NE,37,0.0,0.0,100,0.00,,,0.00,Wunderground v.1.15,2013-05-31 07:49:00,
2013-05-31 03:55:00,64.8,64.8,30.13,NE,38,0.0,0.0,100,0.00,,,0.00,Wunderground v.1.15,2013-05-31 07:55:00,
2013-05-31 04:05:00,64.8,64.8,30.13,NE,38,0.0,0.0,100,0.00,,,0.00,Wunderground v.1.15,2013-05-31 08:05:00,
2013-05-31 04:10:00,64.9,64.9,30.13,NE,38,0.0,0.0,100,0.00,,,0.00,Wunderground v.1.15,2013-05-31 08:10:00,
2013-05-31 04:20:00,65.0,65.0,30.13,NE,37,0.0,0.0,100,0.00,,,0.00,Wunderground v.1.15,2013-05-31 08:20:00,
2013-05-31 04:29:00,65.0,65.0,30.13,NE,38,0.0,0.0,100,0.00,,,0.00,Wunderground v.1.15,2013-05-31 08:29:00,
2013-05-31 04:35:00,65.0,65.0,30.13,NE,38,0.0,0.0,100,0.00,,,0.00,Wunderground v.1.15,2013-05-31 08:35:00,
2013-05-31 04:40:00,65.0,65.0,30.13,NE,38,0.0,0.0,100,0.00,,,0.00,Wunderground v.1.15,2013-05-31 08:40:00,
2013-05-31 04:50:00,65.0,65.0,30.12,NE,38,0.0,0.0,100,0.00,,,0.00,Wunderground v.1.15,2013-05-31 08:50:00,
2013-05-31 05:00:00,65.0,65.0,30.12,NE,37,0.0,0.0,100,0.00,,,0.00,Wunderground v.1.15,2013-05-31 09:00:00,
2013-05-31 05:05:00,65.0,65.0,30.13,NE,37,0.0,0.0,100,0.00,,,0.00,Wunderground v.1.15,2013-05-31 09:05:00,
2013-05-31 05:10:00,65.0,65.0,30.13,NE,38,0.0,0.0,100,0.00,,,0.00,Wunderground v.1.15,2013-05-31 09:10:00,
2013-05-31 05:20:00,65.1,65.1,30.13,NE,38,0.0,0.0,100,0.00,,,0.00,Wunderground v.1.15,2013-05-31 09:20:00,
2013-05-31 05:30:00,65.2,65.2,30.13,NE,38,0.0,0.0,100,0.00,,,0.00,Wunderground v.1.15,2013-05-31 09:30:00,
2013-05-31 05:39:00,65.4,65.4,30.14,NE,38,0.0,0.0,100,0.00,,,0.00,Wunderground v.1.15,2013-05-31 09:39:00,
2013-05-31 05:45:00,65.5,65.5,30.14,NE,38,0.0,0.0,100,0.00,,,0.00,Wunderground v.1.15,2013-05-31 09:45:00,
2013-05-31 05:50:00,65.6,65.6,30.14,NE,38,0.0,0.0,100,0.00,,,0.00,Wunderground v.1.15,2013-05-31 09:50:00,
2013-05-31 05:59:00,65.9,65.9,30.14,NE,38,0.0,0.0,100,0.00,,,0.00,Wunderground v.1.15,2013-05-31 09:59:00,
2013-05-31 06:09:00,66.2,66.2,30.15,NE,38,0.0,0.0,100,0.00,,,0.00,Wunderground v.1.15,2013-05-31 10:09:00,
2013-05-31 06:15:00,66.4,66.4,30.15,NE,38,0.0,0.0,100,0.00,,,0.00,Wunderground v.1.15,2013-05-31 10:15:00,
2013-05-31 06:25:00,66.6,66.6,30.16,NE,38,0.0,0.0,100,0.00,,,0.00,Wunderground v.1.15,2013-05-31 10:25:00,
2013-05-31 06:30:00,66.7,66.7,30.16,NE,38,0.0,0.0,100,0.00,,,0.00,Wunderground v.1.15,2013-05-31 10:30:00,
2013-05-31 06:39:00,66.9,66.9,30.16,NE,38,0.0,0.0,100,0.00,,,0.00,Wunderground v.1.15,2013-05-31 10:39:00,
2013-05-31 06:45:00,67.0,67.0,30.16,NE,38,0.0,0.0,100,0.00,,,0.00,Wunderground v.1.15,2013-05-31 10:45:00,
2013-05-31 06:50:00,67.2,67.2,30.16,NE,38,0.0,0.0,100,0.00,,,0.00,Wunderground v.1.15,2013-05-31 10:50:00,
2013-05-31 07:00:00,67.3,67.3,30.16,NE,38,0.0,0.0,100,0.00,,,0.00,Wunderground v.1.15,2013-05-31 11:00:00,
2013-05-31 07:09:00,67.4,67.4,30.16,NE,38,0.0,0.0,100,0.00,,,0.00,Wunderground v.1.15,2013-05-31 11:09:00,
2013-05-31 07:19:00,67.6,67.6,30.17,NE,38,0.0,0.0,100,0.00,,,0.00,Wunderground v.1.15,2013-05-31 11:19:00,
2013-05-31 07:25:00,67.6,67.6,30.17,NE,38,0.0,0.0,100,0.00,,,0.00,Wunderground v.1.15,2013-05-31 11:25:00,
2013-05-31 07:30:00,67.7,67.7,30.17,NE,38,0.0,0.0,100,0.00,,,0.00,Wunderground v.1.15,2013-05-31 11:30:00,
2013-05-31 07:40:00,67.7,67.7,30.17,NE,38,0.0,0.0,100,0.00,,,0.00,Wunderground v.1.15,2013-05-31 11:40:00,
2013-05-31 07:49:00,67.9,67.9,30.18,NE,38,0.0,0.0,100,0.00,,,0.00,Wunderground v.1.15,2013-05-31 11:49:00,
2013-05-31 07:55:00,67.9,67.9,30.18,NE,38,0.0,0.0,100,0.00,,,0.00,Wunderground v.1.15,2013-05-31 11:55:00,
2013-05-31 08:00:00,68.0,68.0,30.18,NE,38,0.0,0.0,100,0.00,,,0.00,Wunderground v.1.15,2013-05-31 12:00:00,
2013-05-31 08:10:00,68.1,67.8,30.18,NE,38,0.0,0.0,99,0.00,,,0.00,Wunderground v.1.15,2013-05-31 12:10:00,
2013-05-31 08:19:00,68.4,68.1,30.18,NE,38,0.0,0.0,99,0.00,,,0.00,Wunderground v.1.15,2013-05-31 12:19:00,
2013-05-31 08:25:00,68.5,67.9,30.18,NE,38,0.0,0.0,98,0.00,,,0.00,Wunderground v.1.15,2013-05-31 12:25:00,
2013-05-31 08:30:00,68.6,68.0,30.18,NE,38,0.0,0.0,98,0.00,,,0.00,Wunderground v.1.15,2013-05-31 12:30:00,
2013-05-31 08:40:00,69.0,68.4,30.19,NE,38,0.0,0.0,98,0.00,,,0.00,Wunderground v.1.15,2013-05-31 12:40:00,
2013-05-31 08:49:00,69.4,68.5,30.19,NE,38,0.0,0.0,97,0.00,,,0.00,Wunderground v.1.15,2013-05-31 12:49:00,
2013-05-31 09:00:00,69.7,68.8,30.19,NE,38,0.0,0.0,97,0.00,,,0.00,Wunderground v.1.15,2013-05-31 13:00:00,
2013-05-31 09:10:00,70.1,68.9,30.19,NE,38,0.0,0.0,96,0.00,,,0.00,Wunderground v.1.15,2013-05-31 13:10:00,
2013-05-31 09:19:00,70.4,68.9,30.20,NE,38,0.0,0.0,95,0.00,,,0.00,Wunderground v.1.15,2013-05-31 13:19:00,
2013-05-31 09:29:00,70.7,69.2,30.20,NE,38,0.0,0.0,95,0.00,,,0.00,Wunderground v.1.15,2013-05-31 13:29:00,
2013-05-31 09:35:00,71.0,69.5,30.20,NE,38,0.0,0.0,95,0.00,,,0.00,Wunderground v.1.15,2013-05-31 13:35:00,
2013-05-31 09:44:00,71.4,69.6,30.20,NE,38,0.0,0.0,94,0.00,,,0.00,Wunderground v.1.15,2013-05-31 13:44:00,
2013-05-31 09:49:00,71.6,69.5,30.20,NE,38,0.0,0.0,93,0.00,,,0.00,Wunderground v.1.15,2013-05-31 13:49:00,
2013-05-31 09:59:00,72.0,69.9,30.20,NE,38,0.0,0.0,93,0.00,,,0.00,Wunderground v.1.15,2013-05-31 13:59:00,
2013-05-31 10:05:00,72.1,70.0,30.19,NNE,30,0.0,0.0,93,0.00,,,0.00,Wunderground v.1.15,2013-05-31 14:05:00,
2013-05-31 10:10:00,72.3,70.2,30.19,NNE,31,0.0,0.0,93,0.00,,,0.00,Wunderground v.1.15,2013-05-31 14:10:00,
2013-05-31 10:20:00,72.6,70.1,30.19,NNE,31,0.0,0.0,92,0.00,,,0.00,Wunderground v.1.15,2013-05-31 14:20:00,
2013-05-31 10:29:00,73.0,69.9,30.19,SSE,165,0.0,0.0,90,0.00,,,0.00,Wunderground v.1.15,2013-05-31 14:29:00,
2013-05-31 10:35:00,73.1,70.0,30.19,SSE,165,0.0,0.0,90,0.00,,,0.00,Wunderground v.1.15,2013-05-31 14:35:00,
2013-05-31 10:40:00,73.1,70.0,30.19,SSE,165,0.0,0.0,90,0.00,,,0.00,Wunderground v.1.15,2013-05-31 14:40:00,
2013-05-31 10:50:00,73.0,70.5,30.19,SSE,165,0.0,0.0,92,0.00,,,0.00,Wunderground v.1.15,2013-05-31 14:50:00,
2013-05-31 10:59:00,73.5,71.0,30.19,East,82,0.0,0.0,92,0.00,,,0.00,Wunderground v.1.15,2013-05-31 14:59:00,
2013-05-31 11:05:00,73.7,69.9,30.18,East,82,0.0,0.0,88,0.00,,,0.00,Wunderground v.1.15,2013-05-31 15:05:00,
2013-05-31 11:10:00,73.9,70.8,30.18,East,82,0.0,0.0,90,0.00,,,0.00,Wunderground v.1.15,2013-05-31 15:10:00,
2013-05-31 11:20:00,74.4,70.3,30.18,ESE,109,0.0,0.0,87,0.00,,,0.00,Wunderground v.1.15,2013-05-31 15:20:00,
2013-05-31 11:29:00,74.8,71.0,30.18,NE,35,0.0,0.0,88,0.00,,,0.00,Wunderground v.1.15,2013-05-31 15:29:00,
2013-05-31 11:35:00,74.9,71.1,30.18,NE,35,0.0,0.0,88,0.00,,,0.00,Wunderground v.1.15,2013-05-31 15:35:00,
2013-05-31 11:40:00,75.1,71.3,30.18,NE,35,0.0,0.0,88,0.00,,,0.00,Wunderground v.1.15,2013-05-31 15:40:00,
2013-05-31 11:50:00,75.2,70.7,30.18,NE,34,0.0,0.0,86,0.00,,,0.00,Wunderground v.1.15,2013-05-31 15:50:00,
2013-05-31 11:59:00,75.6,71.1,30.18,NE,35,0.0,0.0,86,0.00,,,0.00,Wunderground v.1.15,2013-05-31 15:59:00,
2013-05-31 12:05:00,75.7,71.9,30.18,NNE,30,0.0,0.0,88,0.00,,,0.00,Wunderground v.1.15,2013-05-31 16:05:00,
2013-05-31 12:10:00,75.9,71.1,30.18,NNE,30,0.0,0.0,85,0.00,,,0.00,Wunderground v.1.15,2013-05-31 16:10:00,
2013-05-31 12:20:00,76.0,70.5,30.17,East,89,0.0,0.0,83,0.00,,,0.00,Wunderground v.1.15,2013-05-31 16:20:00,
2013-05-31 12:29:00,76.1,70.9,30.17,East,89,0.0,0.0,84,0.00,,,0.00,Wunderground v.1.15,2013-05-31 16:29:00,
2013-05-31 12:35:00,76.7,71.5,30.17,East,88,0.0,0.0,84,0.00,,,0.00,Wunderground v.1.15,2013-05-31 16:35:00,
2013-05-31 12:45:00,78.2,71.5,30.17,ESE,108,0.0,0.0,80,0.00,,,0.00,Wunderground v.1.15,2013-05-31 16:45:00,
2013-05-31 12:50:00,78.7,72.0,30.16,ESE,108,0.0,0.0,80,0.00,,,0.00,Wunderground v.1.15,2013-05-31 16:50:00,
2013-05-31 12:59:00,79.8,71.6,30.16,NW,324,0.0,0.0,76,0.00,,,0.00,Wunderground v.1.15,2013-05-31 16:59:00,
2013-05-31 13:09:00,81.2,74.1,30.15,NW,315,0.0,0.0,79,0.00,,,0.00,Wunderground v.1.15,2013-05-31 17:09:00,
2013-05-31 13:19:00,81.4,72.7,30.15,NW,315,0.0,0.0,75,0.00,,,0.00,Wunderground v.1.15,2013-05-31 17:19:00,
2013-05-31 13:25:00,81.4,73.1,30.15,NW,316,0.0,0.0,76,0.00,,,0.00,Wunderground v.1.15,2013-05-31 17:25:00,
2013-05-31 13:30:00,81.8,72.7,30.15,NW,315,0.0,0.0,74,0.00,,,0.00,Wunderground v.1.15,2013-05-31 17:30:00,
2013-05-31 13:39:00,82.0,72.5,30.15,NW,316,0.0,0.0,73,0.00,,,0.00,Wunderground v.1.15,2013-05-31 17:39:00,
2013-05-31 13:45:00,82.3,71.5,30.15,NW,315,0.0,0.0,70,0.00,,,0.00,Wunderground v.1.15,2013-05-31 17:45:00,
2013-05-31 13:50:00,82.4,73.3,30.14,NW,316,0.0,0.0,74,0.00,,,0.00,Wunderground v.1.15,2013-05-31 17:50:00,
2013-05-31 14:00:00,82.8,72.0,30.14,NW,316,0.0,0.0,70,0.00,,,0.00,Wunderground v.1.15,2013-05-31 18:00:00,
2013-05-31 14:10:00,82.9,72.9,30.13,WNW,292,0.0,0.0,72,0.00,,,0.00,Wunderground v.1.15,2013-05-31 18:10:00,
2013-05-31 14:19:00,82.1,72.2,30.13,WNW,292,0.0,0.0,72,0.00,,,0.00,Wunderground v.1.15,2013-05-31 18:19:00,
2013-05-31 14:25:00,82.5,71.7,30.13,WNW,292,0.0,0.0,70,0.00,,,0.00,Wunderground v.1.15,2013-05-31 18:25:00,
2013-05-31 14:30:00,81.9,71.2,30.13,West,281,0.0,0.0,70,0.00,,,0.00,Wunderground v.1.15,2013-05-31 18:30:00,
2013-05-31 14:40:00,82.0,71.2,30.12,West,280,0.0,0.0,70,0.00,,,0.00,Wunderground v.1.15,2013-05-31 18:40:00,
2013-05-31 14:49:00,82.3,71.5,30.11,West,269,0.0,0.0,70,0.00,,,0.00,Wunderground v.1.15,2013-05-31 18:49:00,
2013-05-31 14:55:00,83.1,73.1,30.11,North,350,0.0,0.0,72,0.00,,,0.00,Wunderground v.1.15,2013-05-31 18:55:00,
2013-05-31 15:00:00,83.0,71.8,30.11,North,350,0.0,1.0,69,0.00,,,0.00,Wunderground v.1.15,2013-05-31 19:00:00,
2013-05-31 15:10:00,81.7,71.0,30.12,North,349,0.0,0.0,70,0.00,,,0.00,Wunderground v.1.15,2013-05-31 19:10:00,
2013-05-31 15:19:00,81.7,71.4,30.11,North,349,0.0,0.0,71,0.00,,,0.00,Wunderground v.1.15,2013-05-31 19:19:00,
2013-05-31 15:25:00,81.9,72.0,30.11,North,349,0.0,0.0,72,0.00,,,0.00,Wunderground v.1.15,2013-05-31 19:25:00,
2013-05-31 15:35:00,81.3,70.6,30.10,North,349,0.0,0.0,70,0.00,,,0.00,Wunderground v.1.15,2013-05-31 19:35:00,
2013-05-31 15:40:00,81.1,70.8,30.10,North,349,0.0,0.0,71,0.00,,,0.00,Wunderground v.1.15,2013-05-31 19:40:00,
2013-05-31 15:49:00,82.7,71.9,30.10,North,349,0.0,0.0,70,0.00,,,0.00,Wunderground v.1.15,2013-05-31 19:49:00,
2013-05-31 15:59:00,83.0,71.3,30.10,North,349,0.0,0.0,68,0.00,,,0.00,Wunderground v.1.15,2013-05-31 19:59:00,
2013-05-31 16:05:00,83.1,71.0,30.10,North,349,0.0,0.0,67,0.00,,,0.00,Wunderground v.1.15,2013-05-31 20:05:00,
2013-05-31 16:14:00,83.4,71.3,30.10,North,349,0.0,0.0,67,0.00,,,0.00,Wunderground v.1.15,2013-05-31 20:14:00,
2013-05-31 16:19:00,83.5,71.4,30.09,North,349,0.0,0.0,67,0.00,,,0.00,Wunderground v.1.15,2013-05-31 20:19:00,
2013-05-31 16:29:00,82.8,70.3,30.09,SSW,203,0.0,0.0,66,0.00,,,0.00,Wunderground v.1.15,2013-05-31 20:29:00,
2013-05-31 16:35:00,82.4,70.8,30.09,SSW,203,0.0,0.0,68,0.00,,,0.00,Wunderground v.1.15,2013-05-31 20:35:00,
2013-05-31 16:40:00,82.5,71.3,30.09,SSW,203,0.0,0.0,69,0.00,,,0.00,Wunderground v.1.15,2013-05-31 20:40:00,
2013-05-31 16:50:00,82.9,71.7,30.09,SSW,203,0.0,0.0,69,0.00,,,0.00,Wunderground v.1.15,2013-05-31 20:50:00,
2013-05-31 16:59:00,82.3,71.1,30.09,SSW,203,0.0,0.0,69,0.00,,,0.00,Wunderground v.1.15,2013-05-31 20:59:00,
2013-05-31 17:05:00,81.9,70.7,30.09,SSW,203,0.0,0.0,69,0.00,,,0.00,Wunderground v.1.15,2013-05-31 21:05:00,
2013-05-31 17:10:00,81.5,69.9,30.09,SSW,203,0.0,0.0,68,0.00,,,0.00,Wunderground v.1.15,2013-05-31 21:10:00,
2013-05-31 17:20:00,81.0,69.0,30.09,SSW,203,0.0,0.0,67,0.00,,,0.00,Wunderground v.1.15,2013-05-31 21:20:00,
2013-05-31 17:29:00,80.5,69.4,30.09,SSW,203,0.0,0.0,69,0.00,,,0.00,Wunderground v.1.15,2013-05-31 21:29:00,
2013-05-31 17:35:00,80.4,69.7,30.09,SSW,203,0.0,0.0,70,0.00,,,0.00,Wunderground v.1.15,2013-05-31 21:35:00,
2013-05-31 17:40:00,80.5,69.8,30.09,SSW,203,0.0,0.0,70,0.00,,,0.00,Wunderground v.1.15,2013-05-31 21:40:00,
2013-05-31 17:50:00,80.3,70.0,30.09,NW,318,0.0,0.0,71,0.00,,,0.00,Wunderground v.1.15,2013-05-31 21:50:00,
2013-05-31 17:59:00,80.0,70.2,30.09,NW,318,0.0,0.0,72,0.00,,,0.00,Wunderground v.1.15,2013-05-31 21:59:00,
2013-05-31 18:10:00,79.9,70.5,30.08,NW,318,0.0,0.0,73,0.00,,,0.00,Wunderground v.1.15,2013-05-31 22:10:00,
2013-05-31 18:20:00,79.8,70.0,30.08,NW,318,0.0,0.0,72,0.00,,,0.00,Wunderground v.1.15,2013-05-31 22:20:00,
2013-05-31 18:30:00,79.7,69.5,30.08,NW,318,0.0,0.0,71,0.00,,,0.00,Wunderground v.1.15,2013-05-31 22:30:00,
2013-05-31 18:39:00,79.6,69.8,30.08,NW,318,0.0,0.0,72,0.00,,,0.00,Wunderground v.1.15,2013-05-31 22:39:00,
2013-05-31 18:45:00,79.4,69.6,30.08,NW,318,0.0,0.0,72,0.00,,,0.00,Wunderground v.1.15,2013-05-31 22:45:00,
2013-05-31 18:55:00,79.3,69.1,30.08,NNW,344,0.0,0.0,71,0.00,,,0.00,Wunderground v.1.15,2013-05-31 22:55:00,
2013-05-31 19:00:00,79.4,69.2,30.08,NNW,344,0.0,0.0,71,0.00,,,0.00,Wunderground v.1.15,2013-05-31 23:00:00,
2013-05-31 19:09:00,79.4,69.6,30.07,NNW,344,0.0,0.0,72,0.00,,,0.00,Wunderground v.1.15,2013-05-31 23:09:00,
2013-05-31 19:19:00,79.2,69.8,30.08,NNW,344,0.0,0.0,73,0.00,,,0.00,Wunderground v.1.15,2013-05-31 23:19:00,
2013-05-31 19:25:00,79.0,69.6,30.08,NNW,344,0.0,0.0,73,0.00,,,0.00,Wunderground v.1.15,2013-05-31 23:25:00,
2013-05-31 19:35:00,78.7,69.7,30.08,NNW,344,0.0,0.0,74,0.00,,,0.00,Wunderground v.1.15,2013-05-31 23:35:00,
2013-05-31 19:40:00,78.5,69.9,30.08,NNW,344,0.0,0.0,75,0.00,,,0.00,Wunderground v.1.15,2013-05-31 23:40:00,
2013-05-31 19:49:00,78.1,69.9,30.08,NNW,344,0.0,0.0,76,0.00,,,0.00,Wunderground v.1.15,2013-05-31 23:49:00,
2013-05-31 19:55:00,78.0,69.8,30.08,NNW,344,0.0,0.0,76,0.00,,,0.00,Wunderground v.1.15,2013-05-31 23:55:00,
2013-05-31 20:00:00,77.9,69.7,30.08,NNW,344,0.0,0.0,76,0.00,,,0.00,Wunderground v.1.15,2013-06-01 00:00:00,
2013-05-31 20:10:00,77.5,69.7,30.08,NNW,344,0.0,0.0,77,0.00,,,0.00,Wunderground v.1.15,2013-06-01 00:10:00,
2013-05-31 20:19:00,77.2,69.4,30.08,NNW,344,0.0,0.0,77,0.00,,,0.00,Wunderground v.1.15,2013-06-01 00:19:00,
2013-05-31 20:25:00,77.0,69.2,30.08,NNW,344,0.0,0.0,77,0.00,,,0.00,Wunderground v.1.15,2013-06-01 00:25:00,
2013-05-31 20:35:00,76.6,70.7,30.09,NNW,344,0.0,0.0,82,0.00,,,0.00,Wunderground v.1.15,2013-06-01 00:35:00,
2013-05-31 20:40:00,76.3,71.5,30.09,ENE,57,0.0,0.0,85,0.00,,,0.00,Wunderground v.1.15,2013-06-01 00:40:00,
2013-05-31 20:49:00,75.7,69.8,30.08,ENE,57,0.0,0.0,82,0.00,,,0.00,Wunderground v.1.15,2013-06-01 00:49:00,
2013-05-31 20:59:00,74.9,70.1,30.08,ENE,57,0.0,0.0,85,0.00,,,0.00,Wunderground v.1.15,2013-06-01 00:59:00,
2013-05-31 21:05:00,74.5,69.3,30.08,ENE,57,0.0,0.0,84,0.00,,,0.00,Wunderground v.1.15,2013-06-01 01:05:00,
2013-05-31 21:10:00,74.0,69.2,30.08,ENE,57,0.0,0.0,85,0.00,,,0.00,Wunderground v.1.15,2013-06-01 01:10:00,
2013-05-31 21:20:00,73.1,68.7,30.08,ENE,57,0.0,0.0,86,0.00,,,0.00,Wunderground v.1.15,2013-06-01 01:20:00,
2013-05-31 21:29:00,72.5,68.7,30.08,ENE,58,0.0,0.0,88,0.00,,,0.00,Wunderground v.1.15,2013-06-01 01:29:00,
2013-05-31 21:35:00,72.2,68.4,30.08,ENE,57,0.0,0.0,88,0.00,,,0.00,Wunderground v.1.15,2013-06-01 01:35:00,
2013-05-31 21:40:00,71.8,68.4,30.08,ENE,58,0.0,0.0,89,0.00,,,0.00,Wunderground v.1.15,2013-06-01 01:40:00,
2013-05-31 21:49:00,71.3,68.2,30.08,ENE,58,0.0,0.0,90,0.00,,,0.00,Wunderground v.1.15,2013-06-01 01:49:00,
2013-05-31 21:55:00,71.0,68.2,30.08,ENE,57,0.0,0.0,91,0.00,,,0.00,Wunderground v.1.15,2013-06-01 01:55:00,
2013-05-31 22:00:00,70.6,67.8,30.08,ENE,58,0.0,0.0,91,0.00,,,0.00,Wunderground v.1.15,2013-06-01 02:00:00,
2013-05-31 22:10:00,70.0,67.9,30.08,ENE,57,0.0,0.0,93,0.00,,,0.00,Wunderground v.1.15,2013-06-01 02:10:00,
2013-05-31 22:19:00,69.6,67.5,30.09,ENE,58,0.0,0.0,93,0.00,,,0.00,Wunderground v.1.15,2013-06-01 02:19:00,
2013-05-31 22:25:00,69.4,67.6,30.09,ENE,57,0.0,0.0,94,0.00,,,0.00,Wunderground v.1.15,2013-06-01 02:25:00,
2013-05-31 22:30:00,69.1,67.3,30.09,ENE,58,0.0,0.0,94,0.00,,,0.00,Wunderground v.1.15,2013-06-01 02:30:00,
2013-05-31 22:40:00,68.7,67.2,30.09,ENE,58,0.0,0.0,95,0.00,,,0.00,Wunderground v.1.15,2013-06-01 02:40:00,
2013-05-31 22:49:00,68.4,66.9,30.09,ENE,58,0.0,0.0,95,0.00,,,0.00,Wunderground v.1.15,2013-06-01 02:49:00,
2013-05-31 22:59:00,68.0,66.8,30.09,ENE,57,0.0,0.0,96,0.00,,,0.00,Wunderground v.1.15,2013-06-01 02:59:00,
2013-05-31 23:05:00,67.8,66.9,30.08,ENE,58,0.0,0.0,97,0.00,,,0.00,Wunderground v.1.15,2013-06-01 03:05:00,
2013-05-31 23:10:00,67.6,66.7,30.08,ENE,57,0.0,0.0,97,0.00,,,0.00,Wunderground v.1.15,2013-06-01 03:10:00,
2013-05-31 23:20:00,67.3,66.4,30.08,ENE,57,0.0,0.0,97,0.00,,,0.00,Wunderground v.1.15,2013-06-01 03:20:00,
2013-05-31 23:29:00,67.0,66.4,30.08,ENE,58,0.0,0.0,98,0.00,,,0.00,Wunderground v.1.15,2013-06-01 03:29:00,
2013-05-31 23:35:00,66.9,66.3,30.08,ENE,57,0.0,0.0,98,0.00,,,0.00,Wunderground v.1.15,2013-06-01 03:35:00,
2013-05-31 23:40:00,66.8,66.2,30.08,ENE,58,0.0,0.0,98,0.00,,,0.00,Wunderground v.1.15,2013-06-01 03:40:00,
2013-05-31 23:50:00,66.6,66.0,30.08,ENE,57,0.0,0.0,98,0.00,,,0.00,Wunderground v.1.15,2013-06-01 03:50:00,